"Pseudo-MPEC" for P11DglB

Created 2023 Jan 27 17:22:17 UT using Find_Orb

Click here for an explanation of pseudo-MPECs

 
 Astrometry: 
     P11DglB* C2023 01 25qmQ:GteNIhRSemAstrometry$=(v,q)Pgr#BZfKT]s+wtZc]+T7pF51
     P11DglB  C2023 01 25;g*kMUu#CG'9iao;cB!a5$LcM=3OY3JNhy+eredacted;2%DN+mCF51
     P11DglB  C2023 01 25H5xcQggI:PvWcKj^oF'HQlIdKml0`5YOhBUd)In'2click+q*D@PF51
     P11DglB KC2023 01 26.33816908 56 09.002+45 44 58.02   ~1Q8b 22.00GVNEOCPI52
     P11DglB KC2023 01 26.34143108 56 08.491+45 44 55.72   ~1Q8b 21.54GVNEOCPI52
     P11DglB KC2023 01 26.34520508 56 08.034+45 44 53.41   ~1Q8b       VNEOCPI52
     P11DglB KC2023 01 26.34991508 56 07.289+45 44 50.35   ~1Q8b 21.63GVNEOCPI52
     P11DglB KC2023 01 27%i'Khere8Ew_7aforE'ttexplanationoqT$[7N)=U;#E!!ujWQ\H21
     P11DglB KC2023 01 27(A:j@Adnj[Hnp_BWQo42;53joWGF9JOZs97H)spQC/Nw@Ym.kbwXH21

Station data:
(F51) Pan-STARRS 1, Haleakala  (N20.707234 W156.255910)  US/Hawaii.
   Observers J. Bulger, T. Lowe, A. Schultz, M. Willman. Measurers K.
   Chambers, S. Chastel, T. de Boer, L. Denneau, J. Fairlamb, H. Flewelling,
   M. Huber, C.-C. Lin, E. Magnier, Y. Ramanjooloo, R. Wainscoat, R. Weryk.
   1.8-m Ritchey-Chrétien + CCD.
(H21) Astronomical Research Observatory, Westfield  (N39.483054 W87.968270)
   US/Illinois.  Observer R. Holmes. Measurers S. Foglia, L. Buzzi, T.
   Linder, R. Holmes. 0.76-m f/3.0 astrograph + CCD0.81-m f/4.0 astrograph +
   CCD0.61-m f/4.5 astrograph + CCD0.40-m f/5.32 astrograph + CCD.
(I52) Steward Observatory, Mt. Lemmon Station  (N32.442544 W110.788920)
   US/Arizona.  Observers T. A. Pruyne, B. M. Africano, E. J. Christensen, G.
   A. Farneth, D. C. Fuls, A. R. Gibbs, A. D. Grauer, H. Gröller, J. A.
   Johnson, R. A. Kowalski, S. M. Larson, G. J. Leonard, D. Rankin, R. L.
   Seaman, F. C. Shelly, K. W. Wierzchoś. 1.0-m reflector + CCD.

Orbital elements:  P11DglB
   Perihelion 2023 Apr 17.72542 +/- 117 TT = 17:24:36 (JD 2460052.22542)
Epoch 2023 Jan 27.0 TT = JDT 2459971.5   Earth MOID: 0.7488   Ma: 0.0742
M 329.22059050 +/- 42               (J2000 ecliptic)             AutoNEOCP
n   0.38128522 +/- 0.0487           Peri.  182.52099 +/- 55
a   1.88351636 +/- 0.161            Node   335.92023 +/- 4.4
e   0.0768232 +/- 0.0526            Incl.   22.98860 +/- 4.2
P   2.58/944.16d           H 19.78  G  0.15   U 10.7  SR
q 1.73881849 +/- 0.112    Q 2.02821423 +/- 0.266
From 9 observations 2023 Jan. 25-27 (42.6 hr); mean residual 0".23
Residuals in arcseconds: 
230125 F51  .15+  .18-    230126 I52  .11-  .24+    230126 I52  .07+  .23+    
230125 F51  .02-  .04-    230126 I52  .43-  .06+    230127 H21  .04-  .08-    
230125 F51  .21-  .15-    230126 I52  .61+  .21+    230127 H21  .03-  .29-    

Ephemerides (geocentric):
Date (UTC) HH   RA             Dec           delta  r     elong  mag " sig PA
---- --------  ------------   ------------  ------ ------ -----  --- --------
2023 01 27 17  08 52 54.635   +45 29 27.04  .82767 1.7620 152.8 21.5 3.20 154
2023 01 27 18  08 52 48.729   +45 28 57.60  .82763 1.7620 152.8 21.5 3.45 154
2023 01 27 19  08 52 42.823   +45 28 28.08  .82759 1.7620 152.8 21.5 3.71 155
2023 01 27 20  08 52 36.917   +45 27 58.49  .82754 1.7620 152.8 21.5 3.97 155
2023 01 27 21  08 52 31.013   +45 27 28.83  .82750 1.7619 152.8 21.5 4.24 155
2023 01 27 22  08 52 25.108   +45 26 59.10  .82746 1.7619 152.8 21.5 4.52 155
2023 01 27 23  08 52 19.205   +45 26 29.29  .82742 1.7619 152.8 21.5 4.80 155
2023 01 28 00  08 52 13.302   +45 25 59.42  .82738 1.7619 152.8 21.5 5.10 156
2023 01 28 01  08 52 07.400   +45 25 29.47  .82734 1.7618 152.8 21.5 5.40 156
2023 01 28 02  08 52 01.498   +45 24 59.45  .82730 1.7618 152.8 21.5 5.71 156
2023 01 28 03  08 51 55.597   +45 24 29.36  .82726 1.7618 152.8 21.5 6.02 156
2023 01 28 04  08 51 49.697   +45 23 59.20  .82722 1.7618 152.9 21.5 6.35 156
2023 01 28 05  08 51 43.798   +45 23 28.97  .82719 1.7617 152.9 21.5 6.68 156
2023 01 28 06  08 51 37.900   +45 22 58.66  .82715 1.7617 152.9 21.5 7.02 156
2023 01 28 07  08 51 32.002   +45 22 28.29  .82711 1.7617 152.9 21.5 7.36 156
2023 01 28 08  08 51 26.105   +45 21 57.84  .82707 1.7617 152.9 21.5 7.72 156
2023 01 28 09  08 51 20.209   +45 21 27.32  .82704 1.7617 152.9 21.5 8.08 156
2023 01 28 10  08 51 14.314   +45 20 56.73  .82700 1.7616 152.9 21.5 8.45 156
2023 01 28 11  08 51 08.420   +45 20 26.07  .82696 1.7616 152.9 21.5 8.83 157
2023 01 28 12  08 51 02.526   +45 19 55.34  .82693 1.7616 152.9 21.5 9.21 157
2023 01 28 13  08 50 56.634   +45 19 24.54  .82689 1.7616 152.9 21.5 9.60 157
2023 01 28 14  08 50 50.742   +45 18 53.66  .82686 1.7615 152.9 21.5 10.0 157
2023 01 28 15  08 50 44.852   +45 18 22.71  .82683 1.7615 152.9 21.5 10.4 157
2023 01 28 16  08 50 38.963   +45 17 51.70  .82679 1.7615 152.9 21.5 10.8 157
2023 01 28 17  08 50 33.074   +45 17 20.61  .82676 1.7615 152.9 21.5 11.2 157
2023 01 28 18  08 50 27.187   +45 16 49.45  .82672 1.7614 152.9 21.5 11.7 157
2023 01 28 19  08 50 21.300   +45 16 18.22  .82669 1.7614 152.9 21.5 12.1 157
2023 01 28 20  08 50 15.415   +45 15 46.92  .82666 1.7614 152.9 21.5 12.6 157
2023 01 28 21  08 50 09.531   +45 15 15.54  .82663 1.7614 152.9 21.5 13.0 157
2023 01 28 22  08 50 03.648   +45 14 44.10  .82660 1.7614 152.9 21.5 13.5 157
2023 01 28 23  08 49 57.766   +45 14 12.58  .82657 1.7613 152.9 21.5 13.9 157
2023 01 29 00  08 49 51.885   +45 13 41.00  .82654 1.7613 152.9 21.5 14.4 157
2023 01 29 01  08 49 46.006   +45 13 09.34  .82651 1.7613 152.9 21.5 14.9 157
2023 01 29 02  08 49 40.127   +45 12 37.61  .82648 1.7613 152.9 21.5 15.4 157
2023 01 29 03  08 49 34.250   +45 12 05.81  .82645 1.7612 152.9 21.5 15.9 157
2023 01 29 04  08 49 28.374   +45 11 33.94  .82642 1.7612 152.9 21.5 16.4 157
2023 01 29 05  08 49 22.500   +45 11 02.00  .82639 1.7612 152.9 21.5 16.9 157
2023 01 29 06  08 49 16.626   +45 10 29.99  .82636 1.7612 152.9 21.5 17.4 157
2023 01 29 07  08 49 10.754   +45 09 57.91  .82633 1.7611 152.9 21.5 18.0 157
2023 01 29 08  08 49 04.883   +45 09 25.76  .82631 1.7611 152.9 21.5 18.5 157
2023 01 29 09  08 48 59.014   +45 08 53.53  .82628 1.7611 152.9 21.5 19.1 157
2023 01 29 10  08 48 53.146   +45 08 21.24  .82625 1.7611 152.9 21.5 19.6 157
2023 01 29 11  08 48 47.279   +45 07 48.87  .82623 1.7611 152.9 21.5 20.2 157
2023 01 29 12  08 48 41.414   +45 07 16.44  .82620 1.7610 152.9 21.5 20.7 157
2023 01 29 13  08 48 35.550   +45 06 43.93  .82617 1.7610 152.9 21.5 21.3 157
2023 01 29 14  08 48 29.688   +45 06 11.35  .82615 1.7610 152.9 21.5 21.9 157
2023 01 29 15  08 48 23.827   +45 05 38.71  .82613 1.7610 152.9 21.5 22.5 157
2023 01 29 16  08 48 17.968   +45 05 05.99  .82610 1.7609 152.9 21.5 23.1 157